Regional Weather Roundup
Issued by NWS State College, PA

Home | Current Version | Previous Version | Text Only | Print | Product List | Glossary On
Versions: 1 2 3 4 5 6 7 8 9 10 11 12 13 14 15 16 17 18 19 20 21 22 23 24 25 26 27 28 29 30 31 32 33 34 35 36 37 38 39 40 41 42 43 44 45 46 47 48 49 50
000
ASUS41 KCTP 240203
RWRCTP

REGIONAL WEATHER ROUNDUP
NATIONAL WEATHER SERVICE STATE COLLEGE PA
1000 PM EDT SUN JUL 23 2017

Note: "fair" indicates few or no clouds below 12,000 feet with no
significant weather and/or obstructions to visibility.

* = STATION THAT DOES NOT REPORT PRECIPITATION /E.G. RAIN...SNOW...ETC/
    THUNDER OR FOG.

PAZ002>004-007>009-013>016-020>023-029>032-240300-
WESTERN PENNSYLVANIA

CITY           SKY/WX    TMP DP  RH WIND       PRES   REMARKS
ERIE           CLOUDY    74  69  85 CALM      29.77R
MEADVILLE      NOT AVBL
FRANKLIN*      CLOUDY    72  63  73 S10       29.81R
NEW CASTLE     LGT RAIN  73  70  90 S3        29.79R
BEAVER COUNTY  NOT AVBL
BUTLER*        CLOUDY    70  68  94 CALM      29.80R
PITTSBURGH INT LGT RAIN  68  66  93 W8        29.80R
PITTSBURGH     LGT RAIN  70  66  87 SW12      29.79S FOG
INDIANA*       CLOUDY    73  72  94 SW5       29.83S FOG
LATROBE        LGT RAIN  70  70 100 SW17      29.82R
WASHINGTON CO* CLOUDY    68  66  94 E5        29.81S
$$

PAZ004>006-010>012-017>019-024>028-033>037-041-042-045-046-049>053-240300-
CENTRAL PENNSYLVANIA

CITY           SKY/WX    TMP DP  RH WIND       PRES   REMARKS
BRADFORD       CLOUDY    71  69  93 N5        29.81R
DUBOIS         TSTM      67  63  87 NE8       29.82R
CLEARFIELD     PTCLDY    73  69  87 SW7       29.81R
JOHNSTOWN      RAIN      70  68  93 SW12      29.85R
ALTOONA        MOCLDY    73  69  87 SW6       29.81R
STATE COLLEGE  NOT AVBL
WILLIAMSPORT   LGT RAIN  74  71  91 SE16G24   29.76R FOG
SELINSGROVE    LGT RAIN  73  73 100 CALM      29.78R
FT INDIANTOWN  CLOUDY    72  72 100 CALM      29.81S
CAPITAL CITY   CLOUDY    74  69  85 SE3       29.79R
HARRISBURG     MOCLDY    73  71  93 SE8       29.79R
YORK           PTCLDY    71  70  96 E3        29.79R
$$

PAZ038>040-043-044-047-048-054-055-060>062-067>071-240300-
EASTERN PENNSYLVANIA

CITY           SKY/WX    TMP DP  RH WIND       PRES   REMARKS
SCRANTON       CLOUDY    74  65  73 SE9G21    29.80S
MOUNT POCONO   LGT RAIN  66  66 100 E5        29.88F
ALLENTOWN      LGT RAIN  72  68  87 E3        29.83S
QUAKERTOWN*    CLOUDY    70  70 100 SE9       29.83F
READING        CLOUDY    73  73 100 SE5       29.80R
LANCASTER      CLOUDY    73  71  93 CALM      29.81R
COATESVILLE    CLOUDY    72  72 100 E9        29.83S
POTTSTOWN      CLOUDY    70  70 100 VRB5      29.83F
BLUE BELL      CLOUDY    68  68 100 CALM      29.85R
DOYLESTOWN     LGT RAIN  70  69  97 CALM      29.83F
WILLOW GROVE   NOT AVBL
NORTH PHILA    LGT RAIN  73  70  90 E10       29.83F
PHILADELPHIA   RAIN      73  70  90 E10       29.81F
$$




USA.gov is the U.S. government's official web portal to all federal, state and local government web resources and services.